User: anonymous   Login
Location: Vancouver
(49.2500°N, 123.1330°W)
Time: 08:18:26
(UTC-07:00)
Language:

Cosmos 1939 Rocket - Orbit

View from above orbital plane
View from above orbital plane
View from above satellite
View from above satellite

Ground track
Ground track

The orbit data is extracted from the following two-line orbital elements,

1 19046U 88032B   17265.51253373  .00000017  00000-0  58656-5 0  9994
2 19046  97.5213 309.5684 0037807   7.2411 352.9352 15.02296282587257
Epoch (UTC): 22 September 2017 12:18:02
Eccentricity: 0.0037807
inclination: 97.5213°
perigee height: 533 km
apogee height: 586 km
right ascension of ascending node: 309.5684°
argument of perigee: 7.2411°
revolutions per day: 15.02296282
mean anomaly at epoch: 352.9352°
orbit number at epoch: 58725

The dashed part of the orbit path shows where the satellite is in the earth's shadow,  

DLR